Date,TemperatureHighF,TemperatureAvgF,TemperatureLowF,DewpointHighF,DewpointAvgF,DewpointLowF,HumidityHigh,HumidityAvg,HumidityLow,PressureMaxIn,PressureMinIn,WindSpeedMaxMPH,WindSpeedAvgMPH,GustSpeedMaxMPH,PrecipitationSumIn
2013-7-1,63.0,52.7,43.0,56.0,47.3,41.0,98,83,62,30.20,30.06,5,2,8,0.00
2013-7-2,68.0,52.6,38.0,54.0,44.9,37.0,98,78,49,30.19,30.08,6,2,8,0.00
2013-7-3,72.0,60.9,46.0,56.0,51.1,45.0,97,74,45,30.10,29.98,8,1,10,0.00
2013-7-4,81.0,70.4,56.0,65.0,60.0,52.0,92,71,50,29.99,29.90,12,2,15,0.00
2013-7-5,87.0,75.8,66.0,65.0,61.8,59.0,82,64,40,29.93,29.85,14,4,17,0.00
2013-7-6,90.0,77.6,70.0,67.0,64.3,62.0,78,65,45,29.88,29.82,12,5,21,0.00
2013-7-7,77.0,68.8,60.0,68.0,63.5,58.0,96,84,65,29.92,29.83,9,2,13,0.04
2013-7-8,64.0,57.8,55.0,61.0,56.2,54.0,97,94,87,29.99,29.90,5,1,10,0.32
2013-7-9,81.0,65.6,55.0,69.0,62.3,54.0,99,90,68,29.99,29.64,12,1,12,0.12
2013-7-10,69.0,63.4,56.0,65.0,55.9,-99.9,98,81,61,29.90,29.61,17,3,23,0.03
2013-7-11,75.0,59.3,48.0,58.0,52.7,47.0,97,81,48,30.10,29.90,5,1,7,0.01
2013-7-12,84.0,70.9,61.0,63.0,55.4,45.0,84,60,36,30.09,30.00,10,4,18,0.00
2013-7-13,87.0,74.3,63.0,64.0,59.5,45.0,86,62,39,30.08,30.01,11,3,14,0.00
2013-7-14,90.0,75.5,61.0,67.0,61.9,58.0,92,65,41,30.17,30.08,9,2,15,0.00
2013-7-15,85.0,74.5,69.0,70.0,66.4,64.0,87,76,59,30.22,30.15,8,1,10,0.00
2013-7-16,91.0,78.0,67.0,76.0,70.0,64.0,91,77,57,30.19,30.05,6,2,11,0.00
2013-7-17,87.0,76.8,66.0,75.0,70.7,65.0,96,82,58,30.13,30.05,6,2,10,0.17
2013-7-18,84.0,72.1,66.0,77.0,69.3,65.0,98,92,72,30.06,29.64,15,1,22,1.40
2013-7-19,82.0,69.7,61.0,74.0,65.3,58.0,98,87,68,29.72,29.53,10,2,19,1.26
2013-7-20,67.0,58.6,53.0,58.0,51.9,46.0,93,79,68,30.01,29.68,11,3,16,0.05
2013-7-21,66.0,54.8,40.0,57.0,49.8,39.0,97,84,68,30.04,29.90,8,2,10,0.00
2013-7-22,82.0,65.4,52.0,70.0,59.7,51.0,97,83,59,29.91,29.52,12,2,20,0.37
2013-7-23,63.0,58.4,54.0,61.0,52.4,48.0,94,81,66,29.95,29.62,9,2,21,0.37
2013-7-24,69.0,60.2,47.0,57.0,52.1,46.0,96,76,55,30.03,29.94,8,2,11,0.00
2013-7-25,77.0,65.0,57.0,62.0,57.1,53.0,95,77,51,29.96,29.85,10,3,17,0.28
2013-7-26,66.0,59.5,50.0,65.0,58.2,49.0,98,95,91,29.88,29.79,10,2,20,1.10
2013-7-27,56.0,52.4,49.0,51.0,49.4,47.0,97,89,82,29.87,29.79,8,2,12,0.07
2013-7-28,53.0,51.3,48.0,52.0,50.0,47.0,98,96,91,29.92,29.70,9,2,18,0.21
2013-7-29,64.0,56.2,48.0,57.0,52.5,47.0,99,89,74,30.12,29.92,8,2,12,0.05
2013-7-30,78.0,63.0,48.0,63.0,56.1,47.0,98,81,47,30.12,30.03,11,1,14,0.01
2013-7-31,73.0,65.7,61.0,64.0,59.8,55.0,94,82,68,30.03,29.82,8,1,13,0.05